Location: *
(43.2048°N, 0.1612°E)
Time: 20:08:50
(UTC+00:00)

Cosmos 2237 Rocket - Pass Details

Date: 30 September 2023
Orbit: 835 x 848 km, 71.0° (Epoch: 06 December)

Event Time Altitude Azimuth Distance (km) Brightness Sun altitude
Rises 05:02:45 0° 336° (NNW) 3,419 5.2 -10.4°
Reaches altitude 10° 05:05:13 10° 337° (NNW) 2,478 4.5 -9.9°
Maximum altitude 05:10:55 80° 65° (ENE) 862 2.4 -8.9°
Drops below altitude 10° 05:16:34 10° 153° (SSE) 2,454 4.9 -7.9°
Sets 05:19:00 0° 154° (SSE) 3,383 5.7 -7.4°
